Location: Lynch Observatory
(39.9540°N, 75.1861°W)
Time: 10:45:51
(UTC-04:00)

ZACube-1 - Pass Details

Date: 01 May 2024
Orbit: 566 x 635 km, 97.7° (Epoch: 25 May)

Event Time Altitude Azimuth Distance (km) Brightness Sun altitude
Rises 04:52:38 0° 358° (N) 2,941 ? -12.4°
Reaches altitude 10° 04:55:10 10° 345° (NNW) 2,031 ? -12.0°
Maximum altitude 04:58:42 24° 292° (WNW) 1,325 ? -11.4°
Enters shadow 05:01:13 15° 248° (WSW) 1,712 ? -11.0°
